sat.trackr.live / text

‹ back to catalog

TRANSPORTER-12 OBJECT AY

NORAD 62655 · 2025-009AY

PAYLOAD ACTIVE UNKNOWN

§ Identity

Operator
Country
TBD
Launch date
2025-01-14
Launch site
AFWTR
Launch vehicle
Mass (kg)
RCS (m²)

External: N2YO · Heavens-Above · Gunter

§ Orbital elements

Epoch: 2026-09-21T05:21:57.915072Z

Period
93.15 min
Inclination
97.3986°
Eccentricity
0.0000506
Mean motion
15.45954482 rev/d
Perigee alt
428.2 km
Apogee alt
428.9 km
Semi-major
6,806.7 km
B*
4.5602e-4
RAAN
352.2844°
Arg perigee
239.8796°
Mean anomaly
120.2403°
Rev number
9,401

§ Raw data

TRANSPORTER-12 OBJECT AY1 62655U 25009AY  26264.22358698  .00022152  00000+0  45602-3 0  99942 62655  97.3986 352.2844 0000506 239.8796 120.2403 15.45954482 94014

JSON: /api/v1/satellites/62655 · /tle

For live sub-satellite position, see the globe view (requires WebGL).

§ Visibility from observer

Set your observer location to see the next 7 days of passes ≥ 10°. The values pass through the URL so the page stays shareable.

No JS? Fill the form by hand. The geolocation button needs JavaScript.